Ellensburg, WA

4:02 AM PDT on April 24, 2018 (GMT -0700)
Bowers

Weather History for KELN - November, 2013

Change the Weather History Date:

Wednesday, November 27, 2013

  Actual Average (KYKM) Record (KYKM)
Temperature  
Mean Temperature 31 °F -  
Max Temperature 41 °F 42 °F 64 °F (2014)
Min Temperature 21 °F 25 °F 3 °F (1985)
Degree Days  
Heating Degree Days 34    
Moisture  
Dew Point 22 °F    
Average Humidity 75    
Maximum Humidity 85    
Minimum Humidity 55    
Precipitation  
Precipitation 0.00 in - - ()
Sea Level Pressure  
Sea Level Pressure 30.20 in    
Wind  
Wind Speed 2 mph (NE)    
Max Wind Speed 6 mph    
Max Gust Speed -    
Visibility 9 miles    
Events      
Averages and records for this station are not official NWS values.
T = Trace of Precipitation, MM = Missing Value Source: NWS Daily Summary

Daily Weather History Graph

Daily Weather History Graph

Search for Another Location

Airport or City:

Astronomy

Nov. 27, 2013 Rise Set
Actual Time 7:22 AM PST 4:16 PM PST
Civil Twilight 6:48 AM PST 4:51 PM PST
Nautical Twilight 6:10 AM PST 5:29 PM PST
Astronomical Twilight 5:33 AM PST 6:05 PM PST
Moon 1:08 AM PST (11/27) 1:15 PM PST (11/27)
Length of Visible Light 10h 02m
Length of Day
8h 54m
Waning Crescent, 30% of the Moon is Illuminated
Nov 27
Waning Crescent
Dec 2
New
Dec 9
First Quarter
Dec 17
Full
Dec 25
Last Quarter

Hourly Weather History & Observations

Time (PST) Temp. Windchill Dew Point Humidity Pressure Visibility Wind Dir Wind Speed Gust Speed Precip Events Conditions
12:53 AM 25.0 °F - 19.0 °F 78% 30.24 in - Calm Calm - N/A   Clear
1:53 AM 27.0 °F 21.6 °F 21.9 °F 81% 30.23 in - WNW 4.6 mph - N/A   Mostly Cloudy
2:53 AM 28.0 °F 22.8 °F 23.0 °F 81% 30.22 in - NE 4.6 mph - N/A   Partly Cloudy
3:53 AM 26.1 °F 21.9 °F 21.9 °F 84% 30.22 in - South 3.5 mph - N/A   Clear
4:53 AM 25.0 °F - 21.0 °F 85% 30.24 in - Calm Calm - N/A   Overcast
5:53 AM 25.0 °F 19.3 °F 19.9 °F 81% 30.23 in - North 4.6 mph - N/A   Clear
6:53 AM 26.1 °F 19.4 °F 21.9 °F 84% 30.23 in 8.0 mi NNE 5.8 mph - N/A   Clear
7:53 AM 23.0 °F 17.0 °F 19.0 °F 85% 30.25 in - South 4.6 mph - N/A   Clear
8:53 AM 28.9 °F 23.9 °F 21.9 °F 75% 30.24 in - South 4.6 mph - N/A   Clear
9:53 AM 32.0 °F - 24.1 °F 73% 30.24 in 7.0 mi Calm Calm - N/A   Clear
10:53 AM 39.0 °F - 26.1 °F 60% 30.21 in - Calm Calm - N/A   Clear
11:53 AM 41.0 °F - 26.1 °F 55% 30.19 in - Calm Calm - N/A   Clear
12:53 PM 41.0 °F - 26.1 °F 55% 30.17 in 10.0 mi Calm Calm - N/A   Clear
1:53 PM 41.0 °F - 26.1 °F 55% 30.16 in - Calm Calm - N/A   Clear
2:53 PM 41.0 °F - 26.1 °F 55% 30.15 in 10.0 mi Calm Calm - N/A   Clear
3:53 PM 39.9 °F - 26.1 °F 58% 30.15 in 10.0 mi Calm Calm - N/A   Clear
4:53 PM 30.9 °F 27.5 °F 23.0 °F 72% 30.17 in - NE 3.5 mph - N/A   Clear
5:53 PM 28.0 °F - 21.9 °F 78% 30.18 in - Calm Calm - N/A   Clear
6:53 PM 26.1 °F 20.5 °F 21.0 °F 81% 30.18 in 10.0 mi NNE 4.6 mph - N/A   Clear
7:53 PM 25.0 °F - 19.9 °F 81% 30.19 in 10.0 mi Calm Calm - N/A   Clear
8:53 PM 25.0 °F 19.3 °F 19.9 °F 81% 30.19 in 9.0 mi ESE 4.6 mph - N/A   Clear
9:53 PM 24.1 °F - 19.9 °F 84% 30.20 in 9.0 mi Calm Calm - N/A   Clear
10:53 PM 21.0 °F - 17.1 °F 85% 30.20 in - Calm Calm - N/A   Clear
11:53 PM 21.0 °F - 17.1 °F 85% 30.19 in - Calm Calm - N/A   Clear